This is the latest recevied weather packets stored in our database for station/object K7D3. If no packets are shown the sender has not sent any weather packets the latest 10 day(s).
| Time | Temp. | Humidity | Pressure | Rain* | Wind** | Luminosity | Snow |
|---|---|---|---|---|---|---|---|
| 1777204831 | 7.78° C | 92% | - | 0 mm | 3.13 m/s, 186° | - | - |
| 1777204348 | 7.22° C | 92% | - | 0 mm | 3.58 m/s, 183° | - | - |
| 1777203869 | 7.22° C | 93% | - | 0 mm | 3.58 m/s, 176° | - | - |
| 1777203390 | 7.22° C | 94% | - | 0 mm | 2.68 m/s, 146° | - | - |
| 1777202907 | 7.22° C | 93% | - | 0 mm | 2.24 m/s, 162° | - | - |
| 1777202426 | 7.22° C | 94% | - | 0 mm | 3.58 m/s, 166° | - | - |
| 1777201947 | 6.67° C | 94% | - | 0 mm | 4.02 m/s, 166° | - | - |
| 1777201462 | 6.67° C | 94% | - | 0 mm | 3.13 m/s, 186° | - | - |
| 1777200979 | 6.67° C | 94% | - | 0 mm | 4.02 m/s, 188° | - | - |
| 1777200498 | 6.67° C | 94% | - | 0 mm | 3.58 m/s, 176° | - | - |
| 1777200015 | 6.67° C | 95% | - | 0 mm | 0 m/s | - | - |
| 1777199536 | 6.67° C | 94% | - | 0 mm | 2.24 m/s, 173° | - | - |
| 1777199056 | 6.67° C | 95% | - | 0 mm | 3.13 m/s, 156° | - | - |
| 1777198574 | 6.67° C | 95% | - | 0 mm | 3.58 m/s, 173° | - | - |
| 1777198093 | 6.11° C | 95% | - | 0 mm | 2.24 m/s, 179° | - | - |
| 1777197614 | 6.11° C | 95% | - | 0 mm | 2.24 m/s, 159° | - | - |
| 1777197131 | 6.11° C | 94% | - | 0 mm | 2.24 m/s, 142° | - | - |
| 1777196652 | 6.11° C | 94% | - | 0 mm | 1.79 m/s, 136° | - | - |
| 1777196173 | 5.56° C | 94% | - | 0 mm | 2.68 m/s, 111° | - | - |
| 1777195685 | 5.56° C | 95% | - | 0 mm | 2.24 m/s, 146° | - | - |
| 1777195205 | 5.56° C | 95% | - | 0 mm | 2.68 m/s, 136° | - | - |
| 1777194726 | 5.56° C | 95% | - | 0 mm | 2.68 m/s, 134° | - | - |
| 1777194243 | 5° C | 96% | - | 0 mm | 2.68 m/s, 142° | - | - |
| 1777193887 | 4.44° C | 96% | - | 0 mm | 2.68 m/s, 145° | - | - |
| 1777193764 | 4.44° C | 96% | - | 0 mm | 2.68 m/s, 145° | - | - |
* Rain latest hour (hover to see other rain measurements)
** Current wind speed in m/s (hover to see current wind gust speed)